Wetbulb
69.31 67.87 68.31 68.39 67.31 66.85 66.72 66.56 67.10 65.98 66.08 66.21 66.02 65.17 65.44 65.02 63.72 63.83 63.68 62.53 62.85 62.87
68.55 68.63 67.77 68.49 68.37 67.14 67.39 66.14 66.42 65.94 66.36 66.47 66.07 65.79 65.42 63.76 63.81 63.86 63.26 63.58 63.17 63.10
67.32 67.39 68.07 68.38 67.15 67.21 67.05 65.16 66.20 66.32 66.12 65.90 65.68 65.72 65.13 64.38 65.77 63.75 62.91 62.50 63.26 63.19
67.22 65.72 67.49 66.51 67.17 67.09 67.06 66.18 64.98 65.22 66.02 65.40 65.05 65.01 64.49 65.00 63.58 62.47 62.30 62.44 61.59 61.84
65.41 65.49 66.44 66.48 66.67 66.80 65.46 65.24 65.26 64.67 65.10 64.53 64.82 65.81 64.70 63.86 64.47 63.67 62.68 62.02 61.70 61.51
65.47 66.32 66.41 66.59 66.55 66.24 65.63 64.51 64.12 64.23 63.92 64.26 64.82 64.33 64.26 64.05 63.59 63.58 63.26 62.30 62.17 61.71
66.30 65.47 66.25 66.73 66.53 67.04 64.43 63.93 63.55 64.60 64.44 64.62 63.87 63.72 63.93 63.75 63.86 63.94 63.52 63.05 63.73 61.84
65.36 66.11 66.09 66.09 66.16 66.82 63.90 64.00 63.65 64.60 64.21 63.88 63.00 62.50 63.95 63.89 63.59 64.00 63.47 63.30 63.69 61.41
64.88 64.97 65.74 65.57 66.25 66.55 65.82 65.17 64.58 64.41 63.39 63.34 61.62 50.96 53.06 58.77 63.85 64.25 63.46 62.96 61.62 60.59
64.85 64.57 64.86 65.22 65.22 65.09 65.30 65.08 64.09 63.78 63.81 61.99 60.94 50.46 50.53 52.74 64.67 63.79 63.84 63.17 63.14 62.56
64.31 64.33 65.07 63.67 65.29 65.54 65.57 64.82 64.73 64.24 62.99 61.82 59.61 51.49 46.24 49.14 64.51 63.87 64.05 63.74 63.72 62.41
64.76 64.54 64.70 64.48 65.35 66.23 65.35 64.26 62.89 63.83 63.10 61.25 59.90 46.24 46.44 56.51 63.91 63.62 63.44 63.85 63.72 62.63
65.20 64.45 65.13 65.13 65.57 66.21 65.85 64.12 63.94 62.48 62.52 57.33 60.30 47.16 47.16 54.10 63.20 62.04 61.00 61.74 60.06 52.61
65.57 65.34 65.99 66.03 66.08 66.04 65.25 63.65 62.16 61.77 61.34 62.69 60.67 57.55 47.52 47.52 63.39 62.86 61.35 60.50 59.27 55.97
MSLP
1003.43 1003.68 1003.95 1004.21 1004.41 1004.72 1004.92 1005.30 1005.51 1005.57 1005.89 1006.05 1006.12 1006.43 1006.56 1006.79 1007.03 1007.10 1007.17 1007.14 1006.98 1006.98
1003.48 1003.69 1004.07 1004.24 1004.47 1004.61 1004.91 1005.22 1005.22 1005.67 1005.77 1005.83 1006.02 1006.16 1006.37 1006.69 1006.73 1006.90 1007.00 1007.01 1006.80 1006.95
1003.41 1003.72 1004.04 1004.30 1004.65 1004.62 1004.81 1005.06 1005.26 1005.62 1005.77 1005.87 1006.12 1006.16 1006.41 1006.55 1006.68 1006.92 1007.05 1007.18 1007.09 1007.18
1003.34 1003.80 1004.03 1004.45 1004.60 1004.68 1004.73 1005.02 1005.26 1005.61 1005.72 1005.91 1006.07 1006.26 1006.49 1006.65 1006.85 1007.02 1007.15 1007.31 1007.45 1007.57
1003.44 1004.04 1004.28 1004.46 1004.64 1004.81 1004.80 1005.04 1005.25 1005.50 1005.53 1005.71 1006.14 1006.31 1006.47 1006.81 1006.84 1007.03 1007.25 1007.39 1007.66 1007.70
1003.57 1004.00 1004.23 1004.37 1004.65 1004.79 1004.92 1005.10 1005.30 1005.46 1005.56 1005.98 1006.29 1006.57 1006.83 1006.93 1007.10 1007.11 1007.04 1007.17 1007.45 1007.83
1003.51 1003.98 1004.20 1004.40 1004.51 1004.45 1004.80 1005.07 1005.38 1005.63 1005.93 1006.36 1006.67 1006.94 1007.11 1007.12 1007.10 1007.12 1007.37 1007.49 1007.76 1008.11
1003.55 1003.92 1004.14 1004.46 1004.52 1004.54 1004.63 1004.99 1005.57 1005.98 1006.55 1006.97 1007.11 1007.41 1007.46 1007.54 1007.40 1007.37 1007.75 1008.02 1008.23 1008.73
1003.41 1003.81 1004.18 1004.47 1004.67 1004.81 1005.01 1005.26 1005.63 1006.27 1006.94 1007.17 1007.70 1008.18 1008.08 1008.01 1007.77 1007.71 1007.94 1008.40 1008.85 1009.16
1003.32 1003.67 1004.22 1004.54 1004.87 1005.27 1005.55 1005.81 1006.27 1006.70 1007.01 1007.58 1008.19 1008.58 1008.49 1008.39 1008.06 1008.16 1008.30 1008.66 1009.02 1009.30
1003.21 1003.63 1004.05 1004.56 1005.01 1005.50 1005.95 1006.21 1006.52 1006.86 1007.36 1007.98 1008.52 1008.83 1008.87 1008.68 1008.42 1008.51 1008.73 1008.90 1009.28 1009.79
1002.82 1003.62 1004.18 1004.65 1005.22 1005.68 1006.00 1006.26 1006.61 1007.03 1007.54 1008.32 1008.88 1009.23 1009.24 1008.83 1008.81 1008.98 1009.21 1009.41 1009.74 1010.21
1002.66 1003.54 1004.12 1004.73 1005.35 1005.68 1006.08 1006.56 1007.08 1007.54 1007.96 1008.43 1009.10 1009.51 1009.64 1009.45 1009.17 1009.46 1009.71 1010.08 1010.56 1010.91
1002.62 1003.42 1004.16 1004.85 1005.36 1005.82 1006.20 1006.74 1007.27 1007.84 1008.32 1008.66 1009.16 1009.68 1009.75 1009.66 1009.60 1009.74 1010.01 1010.57 1011.21 1011.85
Wind_Speed
6 4 2 3 2 3 3 3 4 4 3 4 4 4 4 3 2 3 3 5 6 3
5 5 4 4 3 3 4 4 4 5 3 2 3 5 5 2 3 4 2 1 2 1
6 5 4 3 4 2 4 3 7 4 3 3 3 3 4 3 4 4 1 2 2 3
5 5 5 3 3 3 1 6 5 5 4 4 4 3 4 4 4 4 2 1 2 4
5 7 5 4 5 4 3 5 4 6 5 6 5 3 1 4 4 5 4 3 1 2
7 5 5 5 5 6 5 4 4 4 3 9 5 5 4 4 4 2 3 2 2 7
6 6 5 5 4 3 7 5 5 5 8 6 6 3 3 3 1 2 4 4 5 7
7 5 5 5 4 3 6 6 8 8 9 4 4 4 3 3 2 4 6 5 7 6
7 7 6 6 5 3 3 6 7 9 7 3 6 8 9 7 3 5 7 7 8 6
10 8 8 7 7 7 6 7 7 7 6 8 6 8 9 9 3 5 6 7 8 7
10 8 5 7 7 7 6 6 6 5 9 8 4 7 9 9 5 6 6 6 9 9
10 9 6 8 8 7 6 4 6 6 10 8 4 8 8 7 5 8 8 7 9 10
10 11 7 9 8 6 5 5 5 8 7 8 5 5 6 6 5 8 7 8 10 12
10 9 9 9 6 6 7 8 8 8 5 6 5 3 5 8 6 6 7 7 7 6
Wind_Direction
135 185 121 90 16 110 160 138 205 174 170 206 188 185 196 189 191 217 234 268 227 271
141 141 129 127 94 146 118 164 162 121 180 165 191 210 173 160 187 110 67 325 283 253
130 119 140 134 142 136 147 149 115 130 134 135 182 162 138 160 146 143 128 321 17 343
139 145 144 148 115 126 135 120 131 136 132 169 149 118 136 137 135 134 175 105 11 47
156 121 129 157 134 156 188 137 170 175 169 165 94 92 127 168 181 153 191 184 111 159
116 121 131 138 162 193 179 171 172 130 105 78 98 68 50 93 102 140 208 90 150 147
112 148 150 133 190 197 160 145 123 110 83 89 76 80 79 65 82 210 101 83 83 72
126 147 150 157 146 257 135 157 115 99 88 88 103 54 50 76 48 95 94 93 96 92
149 136 147 141 140 126 74 73 107 109 113 203 84 54 43 11 79 94 115 107 100 103
142 137 156 150 138 120 100 99 102 120 123 98 98 67 37 15 87 102 98 108 114 100
137 140 129 134 125 121 129 133 138 146 116 106 107 57 30 352 96 99 100 107 109 113
148 135 151 121 128 126 123 130 130 111 117 115 128 46 20 359 91 87 81 87 109 97
141 143 143 136 131 141 123 125 108 83 89 106 114 50 16 1 90 102 98 85 86 98
154 136 136 121 127 135 139 127 126 119 120 114 126 91 18 18 115 124 112 107 107 108